EN

Hourly Weather Laczki

Today, 24 July, Saturday

Time Temperature Precipitation Wind Pressure Humidity
00:00 +16°C° 0 mm 1 mps 730 mmHg 85%
01:00 +15°C° 0 mm 1 mps 730 mmHg 86%
02:00 +15°C° 0 mm 1 mps 730 mmHg 86%
03:00 +15°C° 0 mm 1 mps 730 mmHg 87%
04:00 +15°C° 0 mm 1 mps 730 mmHg 87%
05:00 +16°C° 0 mm 1 mps 730 mmHg 82%
06:00 +19°C° 0 mm 1 mps 730 mmHg 77%
07:00 +21°C° 0 mm 1 mps 730 mmHg 72%
08:00 +22°C° 0 mm 1 mps 730 mmHg 65%
09:00 +24°C° 0 mm 1 mps 730 mmHg 57%
10:00 +26°C° 0 mm 1 mps 730 mmHg 50%
11:00 +27°C° 0 mm 2 mps 730 mmHg 48%
12:00 +27°C° 0 mm 2 mps 729 mmHg 46%
13:00 +28°C° 0 mm 2 mps 729 mmHg 44%
14:00 +28°C° 0 mm 2 mps 729 mmHg 47%
15:00 +27°C° 0 mm 2 mps 729 mmHg 51%
16:00 +27°C° 0 mm 2 mps 729 mmHg 54%
17:00 +25°C° 0 mm 2 mps 729 mmHg 61%
18:00 +24°C° 0 mm 2 mps 729 mmHg 68%
19:00 +21°C° 0 mm 2 mps 729 mmHg 74%
20:00 +22°C° 0 mm 1 mps 729 mmHg 75%
21:00 +21°C° 0 mm 1 mps 729 mmHg 75%
22:00 +20°C° 0 mm 1 mps 729 mmHg 76%
23:00 +20°C° 0 mm 1 mps 729 mmHg 74%

Tomorrow, 25 July, Sunday

Time Temperature Precipitation Wind Pressure Humidity
00:00 +20°C° 0 mm 1 mps 729 mmHg 72%
01:00 +19°C° 0 mm 1 mps 729 mmHg 69%
02:00 +19°C° 0 mm 1 mps 729 mmHg 70%
03:00 +18°C° 0 mm 1 mps 729 mmHg 70%
04:00 +16°C° 0 mm 2 mps 729 mmHg 71%
05:00 +19°C° 0 mm 1 mps 729 mmHg 67%
06:00 +21°C° 0 mm 1 mps 729 mmHg 63%
07:00 +23°C° 0 mm 1 mps 729 mmHg 59%
08:00 +25°C° 0 mm 1 mps 729 mmHg 53%
09:00 +27°C° 0 mm 2 mps 729 mmHg 47%
10:00 +29°C° 0 mm 2 mps 729 mmHg 40%
11:00 +30°C° 0 mm 2 mps 729 mmHg 38%
12:00 +30°C° 0 mm 2 mps 729 mmHg 36%
13:00 +31°C° 0 mm 3 mps 729 mmHg 35%
14:00 +30°C° 0 mm 3 mps 728 mmHg 40%
15:00 +28°C° 0 mm 3 mps 728 mmHg 46%
16:00 +27°C° 0 mm 2 mps 728 mmHg 52%
17:00 +26°C° 0 mm 2 mps 728 mmHg 55%
18:00 +25°C° 0 mm 2 mps 728 mmHg 58%
19:00 +24°C° 0 mm 2 mps 727 mmHg 61%
20:00 +23°C° 0 mm 2 mps 727 mmHg 63%
21:00 +21°C° 0 mm 2 mps 727 mmHg 64%
22:00 +20°C° 0 mm 3 mps 727 mmHg 65%
23:00 +20°C° 0.1 mm 3 mps 727 mmHg 66%

Day after tomorrow, 26 July, Monday

Time Temperature Precipitation Wind Pressure Humidity
00:00 +20°C° 0.1 mm 3 mps 727 mmHg 67%
01:00 +20°C° 0.1 mm 2 mps 727 mmHg 67%
02:00 +20°C° 0 mm 2 mps 727 mmHg 70%
03:00 +19°C° 0 mm 2 mps 727 mmHg 72%
04:00 +20°C° 0 mm 1 mps 727 mmHg 74%
05:00 +21°C° 0.1 mm 1 mps 727 mmHg 72%
06:00 +22°C° 0.1 mm 1 mps 727 mmHg 69%
07:00 +24°C° 0.1 mm 1 mps 727 mmHg 66%
08:00 +26°C° 0 mm 1 mps 728 mmHg 61%
09:00 +27°C° 0 mm 2 mps 728 mmHg 56%
10:00 +29°C° 0 mm 2 mps 728 mmHg 50%
11:00 +29°C° 0.1 mm 2 mps 728 mmHg 51%
12:00 +29°C° 0.1 mm 2 mps 728 mmHg 52%
13:00 +30°C° 0.1 mm 2 mps 728 mmHg 53%
14:00 +29°C° 0.3 mm 2 mps 728 mmHg 58%
15:00 +28°C° 0.3 mm 2 mps 728 mmHg 63%
16:00 +27°C° 0.3 mm 1 mps 728 mmHg 68%
17:00 +26°C° 0.2 mm 1 mps 728 mmHg 72%
18:00 +25°C° 0.2 mm 1 mps 728 mmHg 76%
19:00 +24°C° 0.2 mm 1 mps 728 mmHg 80%
20:00 +23°C° 0.1 mm 1 mps 728 mmHg 82%
21:00 +22°C° 0.1 mm 1 mps 728 mmHg 85%
22:00 +21°C° 0.1 mm 1 mps 728 mmHg 87%
23:00 +21°C° 0.2 mm 1 mps 728 mmHg 88%

27 July, Tuesday

Time Temperature Precipitation Wind Pressure Humidity
00:00 +21°C° 0.2 mm 1 mps 728 mmHg 89%
01:00 +21°C° 0.2 mm 1 mps 728 mmHg 90%
02:00 +20°C° 0.1 mm 1 mps 728 mmHg 91%
03:00 +18°C° 0.1 mm 0 mps 728 mmHg 92%
04:00 +17°C° 0.1 mm 0 mps 728 mmHg 93%
05:00 +18°C° 0 mm 0 mps 728 mmHg 90%
06:00 +22°C° 0 mm 1 mps 729 mmHg 86%
07:00 +23°C° 0 mm 1 mps 729 mmHg 83%
08:00 +25°C° 0 mm 1 mps 729 mmHg 76%
09:00 +26°C° 0 mm 1 mps 729 mmHg 69%
10:00 +28°C° 0 mm 1 mps 729 mmHg 62%
11:00 +28°C° 0.2 mm 1 mps 729 mmHg 61%
12:00 +29°C° 0.2 mm 1 mps 729 mmHg 60%
13:00 +30°C° 0.2 mm 1 mps 729 mmHg 59%
14:00 +29°C° 0.3 mm 1 mps 729 mmHg 60%
15:00 +29°C° 0.3 mm 1 mps 728 mmHg 62%
16:00 +29°C° 0.3 mm 1 mps 728 mmHg 64%
17:00 +28°C° 0.5 mm 1 mps 728 mmHg 70%
18:00 +26°C° 0.5 mm 1 mps 727 mmHg 75%
19:00 +25°C° 0.5 mm 1 mps 727 mmHg 81%
20:00 +23°C° 1.3 mm 1 mps 727 mmHg 85%
21:00 +21°C° 1.3 mm 1 mps 727 mmHg 90%
22:00 +20°C° 1.3 mm 1 mps 728 mmHg 95%
23:00 +20°C° 0.6 mm 1 mps 728 mmHg 95%

28 July, Wednesday

Time Temperature Precipitation Wind Pressure Humidity
00:00 +20°C° 0.6 mm 1 mps 728 mmHg 95%
01:00 +20°C° 0.6 mm 1 mps 727 mmHg 95%
02:00 +20°C° 0.2 mm 1 mps 728 mmHg 96%
03:00 +19°C° 0.2 mm 1 mps 728 mmHg 97%
04:00 +18°C° 0.2 mm 2 mps 728 mmHg 98%
05:00 +19°C° 0.4 mm 2 mps 728 mmHg 95%
06:00 +19°C° 0.4 mm 2 mps 728 mmHg 93%
07:00 +20°C° 0.4 mm 3 mps 729 mmHg 90%
08:00 +20°C° 0.1 mm 3 mps 729 mmHg 88%
09:00 +21°C° 0.1 mm 3 mps 729 mmHg 85%
10:00 +21°C° 0.1 mm 3 mps 729 mmHg 82%
11:00 +21°C° 0.7 mm 3 mps 729 mmHg 84%
12:00 +20°C° 0.7 mm 3 mps 730 mmHg 86%
13:00 +20°C° 0.7 mm 3 mps 730 mmHg 88%
14:00 +21°C° 0.4 mm 3 mps 730 mmHg 83%
15:00 +22°C° 0.4 mm 3 mps 730 mmHg 78%
16:00 +24°C° 0.4 mm 3 mps 730 mmHg 73%
17:00 +22°C° 0.1 mm 3 mps 730 mmHg 76%
18:00 +21°C° 0.1 mm 2 mps 730 mmHg 80%
19:00 +20°C° 0.1 mm 2 mps 730 mmHg 83%
20:00 +19°C° 0 mm 2 mps 730 mmHg 84%
21:00 +19°C° 0 mm 2 mps 730 mmHg 85%
22:00 +19°C° 0 mm 1 mps 730 mmHg 86%
23:00 +19°C° 0 mm 1 mps 731 mmHg 87%

29 July, Thursday

Time Temperature Precipitation Wind Pressure Humidity
00:00 +17°C° 0 mm 2 mps 731 mmHg 88%
01:00 +17°C° 0 mm 2 mps 731 mmHg 88%
02:00 +18°C° 0 mm 1 mps 731 mmHg 88%
03:00 +16°C° 0 mm 1 mps 731 mmHg 88%
04:00 +16°C° 0 mm 1 mps 731 mmHg 88%
05:00 +19°C° 0 mm 1 mps 731 mmHg 82%
06:00 +21°C° 0 mm 1 mps 731 mmHg 76%
07:00 +22°C° 0 mm 1 mps 731 mmHg 70%
08:00 +24°C° 0 mm 1 mps 731 mmHg 63%
09:00 +26°C° 0 mm 1 mps 731 mmHg 56%
10:00 +27°C° 0 mm 1 mps 732 mmHg 49%
11:00 +28°C° 0 mm 1 mps 731 mmHg 47%
12:00 +29°C° 0 mm 1 mps 731 mmHg 45%
13:00 +29°C° 0 mm 2 mps 731 mmHg 43%
14:00 +29°C° 0 mm 2 mps 731 mmHg 45%
15:00 +29°C° 0 mm 1 mps 731 mmHg 47%
16:00 +29°C° 0 mm 1 mps 730 mmHg 48%
17:00 +27°C° 0 mm 1 mps 730 mmHg 56%
18:00 +25°C° 0 mm 1 mps 730 mmHg 65%
19:00 +23°C° 0 mm 1 mps 730 mmHg 73%
20:00 +23°C° 0 mm 1 mps 730 mmHg 75%
21:00 +21°C° 0 mm 2 mps 730 mmHg 77%
22:00 +20°C° 0 mm 2 mps 730 mmHg 80%
23:00 +19°C° 0 mm 2 mps 729 mmHg 80%
Show more